Location: Newark
(52.1031°N, 9.3600°E)
Time: 04:30:47
(UTC+00:00)

Envisat - Pass Details

Date: 21 October 2019
Orbit: 764 x 766 km, 98.1° (Epoch: 18 November)

Event Time Altitude Azimuth Distance (km) Brightness Sun altitude
Rises 18:34:05 0° 205° (SSW) 3,224 6.4 -21.8°
Reaches altitude 10° 18:36:56 10° 222° (SW) 2,303 5.8 -22.2°
Maximum altitude 18:40:44 21° 271° (W) 1,673 5.6 -22.8°
Drops below altitude 10° 18:44:34 10° 320° (NW) 2,315 6.2 -23.4°
Sets 18:47:27 0° 336° (NNW) 3,247 6.8 -23.8°
